Fargo, ND

4:14 AM CDT on May 23, 2017 (GMT -0500)
Hector International

Weather History for KFAR - March, 2015

Change the Weather History Date:

Thursday, March 5, 2015

  Actual Average Record
Temperature  
Mean Temperature 7 °F 22 °F  
Max Temperature 25 °F 30 °F 67 °F (2000)
Min Temperature -11 °F 14 °F -22 °F (1997)
Degree Days  
Heating Degree Days 58 43  
Month to date heating degree days 276 219  
Since 1 July heating degree days 6692 6897  
Cooling Degree Days 0 0  
Month to date cooling degree days 0 0  
Year to date cooling degree days 0 0  
Moisture  
Dew Point -2 °F    
Average Humidity 59    
Maximum Humidity 72    
Minimum Humidity 45    
Precipitation  
Precipitation 0.00 in 0.04 in 0.77 in (1992)
Month to date precipitation 0.02 0.19  
Year to date precipitation 0.99 1.50  
Snow  
Snow 0.00 in 0.40 in 4.50 in (1896)
Month to date snowfall 0.2 1.8  
Since 1 July snowfall 15.8 39.8  
Snow Depth 3.00 in    
Sea Level Pressure  
Sea Level Pressure 30.35 in    
Wind  
Wind Speed 14 mph (South)    
Max Wind Speed 24 mph    
Max Gust Speed 29 mph    
Visibility 10 miles    
Events      
T = Trace of Precipitation, MM = Missing Value Source: NWS Daily Summary

Daily Weather History Graph

Daily Weather History Graph

Search for Another Location

Airport or City:

Trip Planner

Search our weather history database for the weather conditions in past years. The results will help you decide how hot, cold, wet, or windy it might be!

Date:

Astronomy

Mar. 05, 2015 Rise Set
Actual Time 6:59 AM CST 6:18 PM CST
Civil Twilight 6:29 AM CST 6:48 PM CST
Nautical Twilight 5:54 AM CST 7:23 PM CST
Astronomical Twilight 5:19 AM CST 7:59 PM CST
Moon 6:34 PM CST (3/5) 6:45 AM CST (3/5)
Length of Visible Light 12h 19m
Length of Day
11h 18m
Full, 100% of the Moon is Illuminated
Mar 5
Full
Mar 5
Full
Mar 13
Last Quarter
Mar 20
New
Mar 27
First Quarter

Hourly Weather History & Observations

Time (CST) Temp. Windchill Dew Point Humidity Pressure Visibility Wind Dir Wind Speed Gust Speed Precip Events Conditions
12:53 AM -7.1 °F -23.9 °F -14.1 °F 72% 30.52 in 10.0 mi WSW 9.2 mph - N/A   Clear
1:53 AM -8.0 °F -22.5 °F -15.0 °F 71% 30.52 in 10.0 mi WSW 6.9 mph - N/A   Clear
2:53 AM -9.0 °F -22.3 °F -16.1 °F 71% 30.52 in 10.0 mi SW 5.8 mph - N/A   Clear
3:53 AM -9.0 °F -23.8 °F -16.1 °F 71% 30.50 in 10.0 mi SSW 6.9 mph - N/A   Clear
4:53 AM -9.0 °F -23.8 °F -16.1 °F 71% 30.49 in 10.0 mi SSW 6.9 mph - N/A   Clear
5:53 AM -8.0 °F -22.5 °F -15.0 °F 71% 30.49 in 10.0 mi SSW 6.9 mph - N/A   Clear
6:53 AM -7.1 °F -25.0 °F -14.1 °F 72% 30.48 in 10.0 mi South 10.4 mph - N/A   Clear
7:53 AM -4.0 °F -20.2 °F -11.9 °F 69% 30.48 in 10.0 mi South 9.2 mph - N/A   Clear
8:53 AM 1.0 °F -18.0 °F -9.0 °F 63% 30.48 in 10.0 mi South 15.0 mph - N/A   Clear
9:53 AM 7.0 °F -10.4 °F -6.0 °F 55% 30.45 in 10.0 mi South 15.0 mph - N/A   Clear
10:53 AM 12.0 °F -4.0 °F -2.9 °F 51% 30.43 in 10.0 mi South 15.0 mph - N/A   Clear
11:53 AM 15.1 °F -1.1 °F -0.9 °F 49% 30.40 in 10.0 mi South 17.3 mph - N/A   Clear
12:53 PM 19.0 °F 2.7 °F 1.9 °F 47% 30.37 in 10.0 mi South 20.7 mph 25.3 mph N/A   Clear
1:53 PM 21.0 °F 4.6 °F 3.9 °F 48% 30.34 in 10.0 mi South 23.0 mph 27.6 mph N/A   Clear
2:53 PM 21.2 °F 4.9 °F 6.8 °F 54% 30.24 in 10.0 mi South 23.0 mph - N/A   Clear
3:53 PM 25.0 °F 10.6 °F 7.0 °F 46% 30.28 in 10.0 mi South 20.7 mph 27.6 mph N/A   Clear
4:53 PM 25.0 °F 10.9 °F 7.0 °F 46% 30.27 in 10.0 mi South 19.6 mph - N/A   Clear
5:53 PM 23.0 °F 8.3 °F 7.0 °F 50% 30.26 in 10.0 mi South 19.6 mph - N/A   Clear
6:53 PM 19.9 °F 6.2 °F 8.1 °F 60% 30.25 in 10.0 mi South 15.0 mph - N/A   Clear
7:53 PM 18.0 °F 3.6 °F 7.0 °F 62% 30.22 in 10.0 mi South 15.0 mph - N/A   Clear
8:53 PM 17.1 °F 2.0 °F 7.0 °F 65% 30.19 in 10.0 mi South 16.1 mph - N/A   Clear
9:53 PM 16.0 °F 2.3 °F 7.0 °F 68% 30.17 in 10.0 mi South 12.7 mph - N/A   Clear
10:53 PM 17.1 °F 3.0 °F 7.0 °F 65% 30.13 in 10.0 mi South 13.8 mph - N/A   Clear
11:53 PM 17.1 °F 3.0 °F 8.1 °F 68% 30.09 in 10.0 mi South 13.8 mph - N/A   Overcast